When you browse on this site, cookies collect data to enhance your experience and personalize the content and advertising you see.
Visit our Privacy Policy to learn more. By continuing to use the site, you agree to this use of cookies and data.
  • In Hungary
  • List of Countries
  • For 7 days
  • Water Temperature
  • Weather Map
  • News
  • Weather Widgets
  • user-avatar
    Login

    Hourly Weather Pozdeevo

    Today, 16 October, Wednesday

    Time Temperature Precipitation Wind Pressure Humidity
    00:00 +10°C° 0 mm 3 mps 750 mmHg 83%
    01:00 +9°C° 0 mm 3 mps 750 mmHg 84%
    02:00 +8°C° 0 mm 3 mps 750 mmHg 85%
    03:00 +8°C° 0 mm 3 mps 750 mmHg 85%
    04:00 +7°C° 0 mm 3 mps 750 mmHg 85%
    05:00 +7°C° 0 mm 3 mps 750 mmHg 86%
    06:00 +6°C° 0 mm 4 mps 751 mmHg 85%
    07:00 +7°C° 0 mm 4 mps 751 mmHg 85%
    08:00 +7°C° 0 mm 4 mps 751 mmHg 85%
    09:00 +8°C° 0 mm 4 mps 751 mmHg 81%
    10:00 +11°C° 0 mm 4 mps 751 mmHg 77%
    11:00 +12°C° 0 mm 4 mps 751 mmHg 73%
    12:00 +12°C° 0 mm 4 mps 751 mmHg 72%
    13:00 +13°C° 0 mm 4 mps 751 mmHg 70%
    14:00 +13°C° 0 mm 4 mps 750 mmHg 68%
    15:00 +13°C° 0 mm 4 mps 750 mmHg 72%
    16:00 +12°C° 0 mm 4 mps 750 mmHg 75%
    17:00 +11°C° 0 mm 4 mps 749 mmHg 78%
    18:00 +11°C° 0 mm 4 mps 749 mmHg 79%
    19:00 +11°C° 0 mm 4 mps 749 mmHg 80%
    20:00 +9°C° 0 mm 5 mps 749 mmHg 81%
    21:00 +9°C° 0 mm 5 mps 749 mmHg 82%
    22:00 +9°C° 0 mm 5 mps 749 mmHg 83%
    23:00 +9°C° 0 mm 5 mps 749 mmHg 84%

    Tomorrow, 17 October, Thursday

    Time Temperature Precipitation Wind Pressure Humidity
    00:00 +8°C° 0 mm 4 mps 749 mmHg 86%
    01:00 +8°C° 0 mm 4 mps 749 mmHg 87%
    02:00 +8°C° 0 mm 4 mps 748 mmHg 89%
    03:00 +8°C° 0 mm 4 mps 748 mmHg 90%
    04:00 +8°C° 0 mm 4 mps 748 mmHg 91%
    05:00 +8°C° 0 mm 4 mps 748 mmHg 92%
    06:00 +10°C° 0 mm 4 mps 747 mmHg 90%
    07:00 +9°C° 0 mm 5 mps 747 mmHg 87%
    08:00 +10°C° 0 mm 5 mps 747 mmHg 85%
    09:00 +13°C° 0 mm 5 mps 747 mmHg 81%
    10:00 +14°C° 0 mm 5 mps 747 mmHg 76%
    11:00 +15°C° 0 mm 5 mps 747 mmHg 72%
    12:00 +16°C° 0 mm 5 mps 746 mmHg 69%
    13:00 +17°C° 0 mm 5 mps 746 mmHg 66%
    14:00 +17°C° 0 mm 5 mps 746 mmHg 62%
    15:00 +16°C° 0 mm 5 mps 745 mmHg 67%
    16:00 +15°C° 0 mm 4 mps 745 mmHg 72%
    17:00 +14°C° 0 mm 4 mps 745 mmHg 77%
    18:00 +13°C° 0 mm 4 mps 745 mmHg 79%
    19:00 +13°C° 0 mm 4 mps 745 mmHg 80%
    20:00 +12°C° 0 mm 4 mps 745 mmHg 81%
    21:00 +12°C° 0 mm 3 mps 745 mmHg 81%
    22:00 +11°C° 0 mm 3 mps 745 mmHg 81%
    23:00 +11°C° 0 mm 3 mps 745 mmHg 81%

    Day after tomorrow, 18 October, Friday

    Time Temperature Precipitation Wind Pressure Humidity
    00:00 +10°C° 0 mm 3 mps 745 mmHg 83%
    01:00 +10°C° 0 mm 3 mps 745 mmHg 85%
    02:00 +10°C° 0 mm 3 mps 745 mmHg 88%
    03:00 +9°C° 0 mm 3 mps 745 mmHg 89%
    04:00 +9°C° 0 mm 3 mps 745 mmHg 91%
    05:00 +9°C° 0 mm 3 mps 745 mmHg 92%
    06:00 +9°C° 0 mm 3 mps 745 mmHg 90%
    07:00 +10°C° 0 mm 3 mps 746 mmHg 89%
    08:00 +10°C° 0 mm 3 mps 746 mmHg 87%
    09:00 +12°C° 0 mm 3 mps 746 mmHg 82%
    10:00 +13°C° 0 mm 3 mps 746 mmHg 77%
    11:00 +14°C° 0 mm 4 mps 746 mmHg 72%
    12:00 +15°C° 0 mm 4 mps 746 mmHg 70%
    13:00 +15°C° 0 mm 4 mps 746 mmHg 68%
    14:00 +15°C° 0 mm 4 mps 746 mmHg 66%
    15:00 +14°C° 0 mm 3 mps 746 mmHg 70%
    16:00 +14°C° 0 mm 2 mps 747 mmHg 75%
    17:00 +13°C° 0 mm 2 mps 747 mmHg 80%
    18:00 +13°C° 0 mm 1 mps 747 mmHg 82%
    19:00 +12°C° 0 mm 1 mps 747 mmHg 84%
    20:00 +12°C° 0 mm 1 mps 747 mmHg 87%
    21:00 +12°C° 0 mm 1 mps 747 mmHg 88%
    22:00 +11°C° 0 mm 1 mps 747 mmHg 88%
    23:00 +11°C° 0 mm 1 mps 748 mmHg 89%

    19 October, Saturday

    Time Temperature Precipitation Wind Pressure Humidity
    00:00 +10°C° 0 mm 0 mps 748 mmHg 90%
    01:00 +10°C° 0 mm 0 mps 748 mmHg 90%
    02:00 +10°C° 0 mm 0 mps 748 mmHg 90%
    03:00 +9°C° 0 mm 0 mps 748 mmHg 90%
    04:00 +9°C° 0 mm 0 mps 748 mmHg 90%
    05:00 +9°C° 0 mm 0 mps 748 mmHg 90%
    06:00 +11°C° 0 mm 1 mps 749 mmHg 88%
    07:00 +11°C° 0 mm 1 mps 749 mmHg 86%
    08:00 +12°C° 0 mm 1 mps 749 mmHg 84%
    09:00 +13°C° 0 mm 1 mps 749 mmHg 79%
    10:00 +14°C° 0 mm 1 mps 749 mmHg 73%
    11:00 +16°C° 0 mm 1 mps 750 mmHg 68%
    12:00 +16°C° 0 mm 1 mps 749 mmHg 67%
    13:00 +16°C° 0 mm 1 mps 749 mmHg 65%
    14:00 +18°C° 0 mm 1 mps 749 mmHg 64%
    15:00 +16°C° 0 mm 1 mps 749 mmHg 68%
    16:00 +15°C° 0 mm 1 mps 749 mmHg 72%
    17:00 +14°C° 0 mm 1 mps 749 mmHg 76%
    18:00 +14°C° 0 mm 1 mps 749 mmHg 78%
    19:00 +13°C° 0 mm 1 mps 750 mmHg 79%
    20:00 +13°C° 0 mm 2 mps 750 mmHg 81%
    21:00 +13°C° 0 mm 2 mps 750 mmHg 83%
    22:00 +12°C° 0 mm 2 mps 750 mmHg 84%
    23:00 +12°C° 0 mm 2 mps 750 mmHg 86%

    20 October, Sunday

    Time Temperature Precipitation Wind Pressure Humidity
    00:00 +10°C° 0 mm 2 mps 750 mmHg 88%
    01:00 +10°C° 0 mm 2 mps 750 mmHg 89%
    02:00 +10°C° 0 mm 2 mps 750 mmHg 90%
    03:00 +10°C° 0 mm 2 mps 750 mmHg 90%
    04:00 +9°C° 0 mm 2 mps 750 mmHg 91%
    05:00 +9°C° 0 mm 2 mps 750 mmHg 91%
    06:00 +10°C° 0 mm 2 mps 751 mmHg 89%
    07:00 +10°C° 0 mm 3 mps 751 mmHg 86%
    08:00 +11°C° 0 mm 3 mps 751 mmHg 84%
    09:00 +12°C° 0 mm 3 mps 751 mmHg 79%
    10:00 +14°C° 0 mm 3 mps 751 mmHg 74%
    11:00 +16°C° 0 mm 3 mps 751 mmHg 69%
    12:00 +16°C° 0 mm 3 mps 751 mmHg 67%
    13:00 +17°C° 0 mm 3 mps 751 mmHg 65%
    14:00 +17°C° 0 mm 3 mps 751 mmHg 63%
    15:00 +16°C° 0 mm 3 mps 751 mmHg 68%
    16:00 +14°C° 0 mm 3 mps 751 mmHg 73%
    17:00 +14°C° 0 mm 2 mps 751 mmHg 78%
    18:00 +14°C° 0 mm 2 mps 751 mmHg 80%
    19:00 +12°C° 0 mm 3 mps 751 mmHg 82%
    20:00 +12°C° 0 mm 3 mps 751 mmHg 84%
    21:00 +11°C° 0 mm 3 mps 752 mmHg 84%
    22:00 +11°C° 0 mm 3 mps 752 mmHg 85%
    23:00 +11°C° 0 mm 3 mps 752 mmHg 86%

    21 October, Monday

    Time Temperature Precipitation Wind Pressure Humidity
    00:00 +11°C° 0 mm 3 mps 752 mmHg 85%
    01:00 +10°C° 0 mm 3 mps 752 mmHg 85%
    02:00 +10°C° 0 mm 3 mps 752 mmHg 85%
    03:00 +10°C° 0 mm 3 mps 752 mmHg 85%
    04:00 +10°C° 0 mm 3 mps 751 mmHg 84%
    05:00 +9°C° 0 mm 3 mps 751 mmHg 84%
    06:00 +10°C° 0 mm 3 mps 751 mmHg 81%
    07:00 +10°C° 0 mm 4 mps 751 mmHg 78%
    08:00 +11°C° 0 mm 4 mps 751 mmHg 75%
    09:00 +12°C° 0 mm 4 mps 751 mmHg 71%
    10:00 +14°C° 0 mm 5 mps 751 mmHg 67%
    11:00 +15°C° 0 mm 5 mps 751 mmHg 63%
    12:00 +16°C° 0 mm 5 mps 751 mmHg 62%
    13:00 +16°C° 0 mm 5 mps 751 mmHg 61%
    14:00 +17°C° 0 mm 5 mps 750 mmHg 60%
    15:00 +15°C° 0 mm 5 mps 750 mmHg 65%
    16:00 +14°C° 0 mm 4 mps 750 mmHg 70%
    17:00 +13°C° 0 mm 4 mps 749 mmHg 75%
    18:00 +13°C° 0 mm 4 mps 749 mmHg 76%
    19:00 +13°C° 0 mm 4 mps 749 mmHg 76%
    20:00 +12°C° 0 mm 4 mps 749 mmHg 77%
    21:00 +12°C° 0 mm 4 mps 749 mmHg 78%
    22:00 +12°C° 0 mm 4 mps 749 mmHg 79%
    23:00 +11°C° 0 mm 4 mps 749 mmHg 79%
    Show more